TimeCST,TemperatureF,Dew PointF,Humidity,Sea Level PressureIn,VisibilityMPH,Wind Direction,Wind SpeedMPH,Gust SpeedMPH,PrecipitationIn,Events,Conditions,WindDirDegrees,DateUTC
12:25 AM,55.4,48.2,77,30.28,4.0,East,4.6,-,N/A,,Haze,90,2013-01-28 06:25:00
12:47 AM,59.0,53.6,82,30.27,5.0,East,6.9,-,0.00,Rain,Light Rain,80,2013-01-28 06:47:00
12:56 AM,57.9,54.0,87,30.24,5.0,East,4.6,-,0.00,,Mostly Cloudy,90,2013-01-28 06:56:00
1:35 AM,59.0,53.6,82,30.28,5.0,ENE,3.5,-,N/A,,Haze,60,2013-01-28 07:35:00
1:56 AM,59.0,54.0,83,30.24,5.0,ENE,4.6,-,N/A,,Haze,70,2013-01-28 07:56:00
2:33 AM,59.0,55.4,88,30.28,4.0,East,5.8,-,N/A,,Overcast,100,2013-01-28 08:33:00
2:47 AM,59.0,53.6,82,30.27,3.0,East,4.6,-,N/A,,Haze,90,2013-01-28 08:47:00
2:56 AM,59.0,54.0,83,30.24,3.0,East,4.6,-,N/A,,Haze,90,2013-01-28 08:56:00
3:03 AM,57.2,53.6,88,30.27,2.5,East,5.8,-,N/A,,Mostly Cloudy,100,2013-01-28 09:03:00
3:25 AM,57.2,53.6,88,30.27,3.0,ESE,6.9,-,N/A,,Mostly Cloudy,110,2013-01-28 09:25:00
3:56 AM,57.9,54.0,87,30.22,2.5,East,8.1,-,N/A,,Mostly Cloudy,100,2013-01-28 09:56:00
4:12 AM,57.2,53.6,88,30.26,3.0,East,6.9,-,N/A,,Scattered Clouds,100,2013-01-28 10:12:00
4:30 AM,57.2,53.6,88,30.26,2.5,East,6.9,-,N/A,,Clear,100,2013-01-28 10:30:00
4:56 AM,57.9,54.0,87,30.23,2.5,East,6.9,-,N/A,,Clear,100,2013-01-28 10:56:00
5:15 AM,57.2,53.6,88,30.27,2.0,East,6.9,-,N/A,,Mostly Cloudy,100,2013-01-28 11:15:00
5:25 AM,57.2,53.6,88,30.27,2.0,East,5.8,-,N/A,,Mostly Cloudy,100,2013-01-28 11:25:00
5:30 AM,57.2,53.6,88,30.27,1.8,East,5.8,-,N/A,,Overcast,100,2013-01-28 11:30:00
5:37 AM,57.2,53.6,88,30.28,2.0,ESE,6.9,-,N/A,,Overcast,110,2013-01-28 11:37:00
5:52 AM,57.2,53.6,88,30.28,3.0,ESE,8.1,-,N/A,,Scattered Clouds,110,2013-01-28 11:52:00
5:56 AM,57.9,54.0,87,30.24,2.0,East,8.1,-,N/A,,Mostly Cloudy,100,2013-01-28 11:56:00
6:56 AM,57.9,55.9,93,30.25,1.5,East,8.1,-,N/A,,Mostly Cloudy,90,2013-01-28 12:56:00
7:21 AM,59.0,55.4,88,30.30,2.0,East,6.9,-,N/A,,Mostly Cloudy,100,2013-01-28 13:21:00
7:56 AM,60.1,55.9,86,30.26,3.0,East,8.1,-,N/A,,Mostly Cloudy,100,2013-01-28 13:56:00
8:29 AM,62.6,57.2,82,30.31,5.0,East,5.8,-,N/A,,Mostly Cloudy,100,2013-01-28 14:29:00
8:56 AM,62.1,57.9,86,30.27,6.0,ESE,6.9,-,N/A,,Mostly Cloudy,110,2013-01-28 14:56:00
9:11 AM,62.6,57.2,82,30.32,6.0,ESE,5.8,-,N/A,,Mostly Cloudy,110,2013-01-28 15:11:00
9:56 AM,63.0,59.0,87,30.28,7.0,ESE,9.2,-,N/A,,Mostly Cloudy,110,2013-01-28 15:56:00
10:19 AM,69.8,57.2,64,30.32,8.0,SE,9.2,-,N/A,,Mostly Cloudy,140,2013-01-28 16:19:00
10:56 AM,70.0,57.9,65,30.27,8.0,ESE,6.9,-,N/A,,Mostly Cloudy,120,2013-01-28 16:56:00
11:56 AM,73.0,57.9,59,30.25,9.0,South,11.5,-,N/A,,Mostly Cloudy,170,2013-01-28 17:56:00
12:56 PM,73.9,59.0,59,30.21,8.0,SE,11.5,-,N/A,,Mostly Cloudy,140,2013-01-28 18:56:00
1:56 PM,73.9,59.0,59,30.20,9.0,SSE,8.1,-,N/A,,Mostly Cloudy,150,2013-01-28 19:56:00
2:56 PM,75.0,59.0,57,30.19,9.0,SE,8.1,-,N/A,,Mostly Cloudy,130,2013-01-28 20:56:00
3:56 PM,73.9,60.1,62,30.19,9.0,ESE,6.9,-,N/A,,Mostly Cloudy,120,2013-01-28 21:56:00
4:56 PM,70.0,60.1,71,30.19,8.0,ESE,4.6,-,N/A,,Mostly Cloudy,110,2013-01-28 22:56:00
5:56 PM,69.1,60.1,73,30.19,9.0,SE,6.9,-,N/A,,Mostly Cloudy,130,2013-01-28 23:56:00
6:35 PM,68.0,60.8,78,30.22,9.0,ESE,5.8,-,N/A,,Mostly Cloudy,110,2013-01-29 00:35:00
6:56 PM,68.0,60.1,76,30.19,9.0,SE,8.1,-,N/A,,Mostly Cloudy,130,2013-01-29 00:56:00
7:37 PM,66.2,60.8,83,30.22,8.0,SE,9.2,-,N/A,,Overcast,140,2013-01-29 01:37:00
7:56 PM,66.9,60.1,79,30.19,7.0,SE,9.2,-,N/A,,Overcast,140,2013-01-29 01:56:00
8:56 PM,66.9,61.0,81,30.18,7.0,SSE,11.5,-,N/A,,Overcast,150,2013-01-29 02:56:00
9:56 PM,66.9,61.0,81,30.17,7.0,SE,6.9,-,N/A,,Overcast,140,2013-01-29 03:56:00
10:56 PM,66.9,62.1,84,30.15,7.0,ESE,6.9,-,N/A,,Overcast,120,2013-01-29 04:56:00
11:56 PM,66.9,62.1,84,30.14,6.0,SSE,8.1,-,N/A,,Haze,150,2013-01-29 05:56:00